CZ-4 DEB, 26658

Orbit data source: Space-Track

CZ-4 DEB, 26658 is space debris in SSO originally from a launch on Thu, 14 Oct 1999 UTC launched from the Taiyaun Space Center, China (TSC). Debris objects in space refer to the collection of defunct objects orbiting the Earth. Examples of debris include non-operational satellites, rocket bodies, and fragments generated from explosions, collisions, or faulty payload assembly.

Loading next visibility...
Identifier
26658, 1999-057LQ
Orbit
SSO
Country
Flag of CNCN / PRC
Related business
Manufacturer
Unknown
Mission
Spacecraft
Bus & Motor
Unknown
Mass
Unknown
Launch date (UTC)
1999-10-14 (26 years ago)
Launch vehicle
Unknown
Launch site
Taiyaun Space Center, China (TSC)
Object type
Payload
Rocket body
Debris
Shape & HBR
Unknown shape, 0.1 m
Radar Cross Section
Small (<0.1 m²)

Expand to show TLE details & history
Last TLE update: 1 day ago

TLE from 1 day ago
0 CZ-4 DEB
1 26658U 99057LQ  25296.10233991  .00002569  00000-0  59018-3 0  9997
2 26658  98.5406 339.4578 0067880  90.5642 297.5138 14.54959814326696
Epoch: 2025-10-23T02:27Z
TLE epoch observation values (Epoch: 2025-10-23T02:27:22.168Z)
Latitude
27.09684°
Longitude
-93.53405°
Altitude
690.872 km
Speed
7.525 km/s
True Right ascension
22h 20m 17s
True Declination
26° 57' 23"
Sunlit
Object was in full shadow at epoch
Visualization orbit readout
Latitude
Unknown
Longitude
Unknown
Altitude
Unknown
Speed
Unknown
Apparent Right ascension
Unknown
Apparent Declination
Unknown
Sunlit
N/A
Visualization observer readout
Local Sidereal Time
06:34:38
Azimuth
Unknown
Elevation
Unknown
Doppler factor
Unknown
Orbital elements
Apogee altitude
754.69 km
Perigee altitude
658.508 km
Semi-major axis
7,084.736 km
Eccentricity
0.00679
Inclination
98.5406°
RAAN
339.4578°
Arg. of periapsis
90.5642°
True anomaly
296.82123°
Mean anomaly
297.5138°
Eccentric anomaly
297.16778°
Mean motion
3.63963 °/min
Orbital period
98.91 mins
BSTAR
0.00059018
Loading maneuver chart data...
Computing Atmospheric mass density...
Loading historical data...
Loading historical data...
Loading historical data...
Loading historical data...
Loading historical data...
Loading historical data...
Loading historical data...

Documentation

Showing up to 5 results
|